Location: Street
(51.1247°N, 2.7429°W)
Time: 01:41:05
(UTC+00:00)

X-37B - Pass Details

Date: 04 November 2020
Orbit: 384 x 390 km, 45.0° (Epoch: 26 November)

Event Time Altitude Azimuth Distance (km) Brightness Sun altitude
Exits shadow 06:13:40 - 232° (SW) 2,016 3.8 -9.1°
Reaches altitude 10° 06:15:22 10° 219° (SW) 1,413 3.2 -8.8°
Maximum altitude 06:17:53 22° 166° (SSE) 918 2.8 -8.5°
Drops below altitude 10° 06:20:23 10° 114° (ESE) 1,413 5.1 -8.1°
Sets 06:22:44 0° 98° (E) 2,267 6.8 -7.7°
